Probability
0 0 0 0 0 0 0 0 0 0 0 0 0 0 0 0 0 0 0 0 0 0 0 0 0 0 0 0 0 0 0 0 0 0 0 0 0 0
0 0 0 0 0 0 0 0 0 0 0 0 0 0 0 0 0 0 0 0 0 0 0 0 0 0 0 0 0 0 0 0 0 0 0 0 0 0
0 0 0 0 0 0 0 0 0 0 0 0 0 0 0 0 0 0 0 0 0 0 0 0 0 0 0 0 0 0 0 0 0 0 0 0 0 0
0 0 0 0 0 0 0 0 0 0 0 0 0 0 0 0 0 0 0 0 0 0 0 0 0 0 0 0 0 0 0 0 0 0 0 0 0 0
0 0 0 0 0 0 0 0 0 0 0 0 0 0 0 0 0 0 0 0 0 0 0 0 0 0 0 0 0 0 0 0 0 0 0 0 0 0
0 0 0 0 0 0 0 0 0 0 0 0 0 0 0 0 0 0 0 0 0 0 0 0 0 0 0 0 0 0 0 0 0 0 0 0 0 0
0 0 0 0 0 0 0 0 0 0 0 0 0 0 0 0 0 0 0 0 0 0 0 0 0 0 0 0 0 0 0 0 0 0 0 0 0 0
0 0 0 0 0 0 0 0 0 0 0 0 0 0 0 0 0 0 0 0 0 0 0 0 0 0 0 0 0 0 0 0 0 0 0 0 0 0
0 0 0 0 0 0 0 0 0 0 0 0 0 0 0 0 0 0 0 0 0 0 0 0 0 0 0 0 0 0 0 0 0 0 0 0 0 0
0 0 0 0 0 0 0 0 0 0 0 0 0 0 0 0 0 0 0 0 0 0 0 0 0 0 0 0 0 0 0 0 0 0 0 0 0 0
0 0 0 0 0 0 0 0 0 0 0 0 0 0 0 0 0 0 0 0 0 0 0 0 0 0 0 0 0 0 0 0 0 0 0 0 0 0
0 0 0 0 0 0 0 0 0 0 0 0 0 0 0 0 0 0 0 0 0 0 0 0 0 0 0 0 0 0 0 0 0 0 0 0 0 0
0 0 0 0 0 0 0 0 0 0 0 0 0 0 0 0 0 0 0 0 0 0 0 0 0 0 0 0 0 0 0 0 0 0 0 0 0 0
0 0 0 0 0 0 0 0 0 0 0 0 0 0 0 0 0 0 0 0 0 0 0 0 0 0 0 0 0 0 0 0 0 0 0 0 0 0
0 0 0 0 0 0 0 0 0 0 0 0 0 0 0 0 0 0 0 0 0 0 0 0 0 0 0 0 0 0 0 0 0 0 0 0 0 0
0 0 0 0 0 0 0 0 0 0 0 0 0 0 0 0 0 0 0 0 0 0 0 0 0 0 0 0 0 0 0 0 0 0 0 0 0 0
0 0 0 0 0 0 0 0 0 0 0 0 0 0 0 0 0 0 0 0 0 0 0 0 0 0 0 0 0 0 0 0 0 0 0 0 0 0
0 0 0 0 0 0 0 0 0 0 0 0 0 0 0 0 0 0 0 0 0 0 0 0 0 0 0 0 0 0 0 0 0 0 0 0 0 0
0 0 0 0 0 0 0 0 0 0 0 0 0 0 0 0 0 0 0 0 0 0 0 0 0 0 0 0 0 0 0 0 0 0 0 0 0 0
0 0 0 0 0 0 0 0 0 0 0 0 0 0 0 0 0 0 0 0 0 0 0 0 0 0 0 0 0 0 0 0 0 0 0 0 0 0
0 0 0 0 0 0 0 0 0 0 0 0 0 0 0 0 0 0 0 0 0 0 0 0 0 0 0 0 0 0 0 0 0 0 0 0 0 0
0 0 0 0 0 0 0 0 0 0 0 0 0 0 0 0 0 0 0 0 0 0 0 0 0 0 0 0 0 0 0 0 0 0 0 0 0 0
0 0 0 0 0 0 0 0 0 0 0 0 0 0 0 0 0 0 0 0 0 0 0 0 0 0 0 0 0 0 0 0 0 0 0 0 0 0
Wind_Speed
5 5 5 4 4 5 5 5 7 8 7 4 4 4 5 6 5 9 11 7 9 13 14 14 14 15 16 16 16 17 17 18 18 19 20 21 22 22
5 5 6 5 5 5 5 5 6 8 9 7 6 7 7 9 8 10 11 10 15 16 15 13 14 16 17 17 18 18 18 19 19 20 21 21 22 22
6 6 6 6 6 6 5 6 6 6 9 8 7 7 9 11 10 10 11 11 10 10 11 12 14 16 17 17 18 18 18 19 19 20 21 21 22 22
7 7 7 6 7 7 6 7 6 6 8 10 9 9 10 11 10 11 11 10 10 7 9 12 15 16 16 16 16 16 16 17 18 19 20 21 22 22
7 7 7 7 7 7 7 7 6 6 7 9 10 8 9 9 10 10 11 9 11 9 9 14 16 15 15 15 15 15 14 14 16 17 19 20 20 21
7 7 7 7 8 9 7 7 7 8 8 8 9 9 9 9 8 9 9 8 9 10 10 9 9 13 16 17 17 16 14 13 14 15 16 17 18 19
7 7 7 6 7 8 9 10 10 9 9 8 9 9 9 9 9 8 9 10 10 8 8 8 8 8 9 11 14 12 10 11 12 13 14 14 15 16
8 8 7 4 5 7 8 10 11 11 11 10 9 10 11 10 9 8 9 9 8 7 9 10 8 8 8 7 0 2 6 9 11 12 13 13 14 15
8 8 7 6 7 9 9 11 11 11 12 10 11 11 11 11 11 11 9 9 10 9 9 9 8 7 8 4 2 3 7 9 11 12 12 13 13 14
7 7 8 8 8 10 13 13 11 8 7 8 9 10 10 10 10 10 10 10 10 8 6 8 8 8 8 5 3 5 8 10 11 11 12 12 13 13
7 7 7 8 8 10 12 12 11 9 5 7 10 12 13 14 12 9 8 7 8 7 5 6 7 9 9 6 2 6 8 10 11 11 11 11 11 12
7 6 2 6 10 11 11 11 11 10 10 8 8 9 10 10 12 9 7 7 7 6 5 6 6 6 6 6 7 6 5 5 8 10 10 10 10 9
7 7 6 8 11 12 11 10 9 11 11 9 7 6 5 4 3 4 4 6 7 6 5 5 6 5 5 6 8 7 7 7 6 5 6 7 8 8
7 7 7 11 14 14 10 8 12 12 8 6 6 6 5 5 5 5 5 6 6 7 7 6 5 6 6 7 6 7 8 7 7 7 6 4 5 6
6 8 11 14 14 9 7 10 11 7 6 6 6 6 6 5 5 4 4 5 5 5 5 6 6 6 6 6 6 6 7 7 7 7 6 5 4 4
7 7 9 11 9 6 6 5 4 5 6 6 7 6 5 5 4 5 5 5 5 4 4 5 5 6 5 6 5 6 7 6 7 8 7 5 4 4
11 7 5 6 7 7 7 6 5 5 6 6 7 7 6 5 5 5 4 4 5 6 6 5 5 3 3 5 6 7 7 7 7 7 7 6 4 5
10 6 7 7 8 8 8 8 8 8 8 8 8 8 7 7 6 5 5 5 5 6 6 6 7 5 3 2 3 8 7 7 8 7 6 5 5 5
6 6 7 8 8 8 8 8 8 9 8 8 8 8 8 8 7 6 6 6 6 6 5 5 6 7 7 6 3 3 7 8 8 7 6 5 5 5
6 7 7 8 8 8 8 9 9 9 9 9 9 9 9 8 8 7 7 8 7 6 6 6 7 7 6 6 4 3 5 7 7 8 8 6 5 4
7 7 7 7 8 8 8 8 9 9 9 9 8 9 9 8 8 8 7 6 6 7 7 6 5 3 4 4 4 5 5 4 5 6 8 7 6 7
8 8 7 8 8 9 9 9 9 9 10 9 9 9 9 9 9 9 9 8 7 7 7 6 6 5 5 6 7 7 6 4 4 4 7 7 5 6
8 8 8 8 8 9 9 11 11 10 10 10 10 9 9 9 8 8 8 9 8 9 8 7 7 6 6 6 7 8 9 8 5 4 6 5 5 4
Wind_Direction
25 19 358 356 336 331 320 314 308 303 299 295 285 301 301 304 320 298 299 302 299 289 286 286 288 287 286 285 284 283 282 281 280 279 278 277 276 275
17 10 349 345 335 316 311 307 302 302 301 307 306 308 321 307 298 296 291 285 262 259 263 273 281 284 284 283 282 281 281 281 280 279 279 278 277 276
7 2 352 341 329 320 313 307 305 304 299 303 306 306 303 297 302 300 294 289 282 242 240 262 275 278 279 280 280 280 280 280 281 281 281 280 279 278
1 349 341 334 327 312 318 312 309 307 296 302 304 303 301 298 297 297 294 294 297 273 232 252 265 270 273 274 274 275 276 276 277 278 278 278 277 276
352 343 337 332 325 329 316 311 309 304 298 295 297 301 297 300 302 295 297 299 295 292 250 242 249 254 258 261 264 267 267 268 271 274 275 275 275 275
347 338 335 335 333 328 313 314 313 309 301 297 299 301 303 306 306 305 305 306 307 306 302 291 263 244 248 251 254 257 259 262 265 268 270 271 273 273
342 337 340 340 333 324 321 325 318 312 308 306 304 305 309 316 314 314 310 309 305 302 304 299 292 285 278 255 245 249 256 263 267 269 269 268 268 268
340 336 327 304 333 292 285 293 297 299 309 307 303 303 307 310 311 308 309 307 307 312 309 304 303 301 299 296 260 234 268 275 277 276 272 268 266 264
334 332 330 347 321 332 317 289 275 258 262 283 292 297 304 308 311 310 308 306 302 304 303 300 304 306 305 314 147 261 274 277 279 279 275 272 269 265
332 330 330 330 357 343 320 310 308 305 285 275 290 297 300 307 306 301 300 298 294 293 300 300 315 320 315 310 197 233 263 272 276 278 277 275 272 268
335 338 333 332 14 335 310 306 313 319 295 257 268 275 279 278 280 293 301 302 311 321 336 315 321 324 315 314 293 229 260 272 275 276 277 277 278 275
337 339 7 343 332 317 308 309 317 326 324 312 281 263 261 255 242 261 296 308 317 318 342 325 319 325 316 321 330 327 309 286 276 275 274 277 283 284
334 338 353 348 324 313 300 296 310 309 304 306 306 310 312 307 289 284 297 301 311 310 318 321 311 317 308 311 320 329 331 330 323 308 274 265 276 287
324 332 337 328 313 303 299 306 300 291 293 310 318 325 329 334 331 324 314 306 298 298 306 309 295 304 307 309 313 324 331 331 329 328 327 306 272 268
318 307 296 294 295 290 268 280 288 297 321 327 332 331 331 331 317 311 309 310 309 306 311 309 302 305 306 308 315 323 326 328 332 330 329 333 336 331
328 305 277 270 272 297 306 304 314 335 334 329 329 327 329 333 331 341 343 341 339 342 338 327 317 315 312 324 329 330 332 327 327 331 331 335 345 346
320 314 349 360 360 2 357 356 348 346 343 341 335 336 342 347 352 351 348 348 351 351 352 354 352 341 324 341 343 341 335 332 333 334 332 340 360 2
305 349 6 2 3 0 354 352 355 356 351 345 345 347 348 351 359 359 355 355 359 2 359 358 358 0 13 74 7 345 344 340 340 341 342 343 350 1
317 9 6 2 360 358 354 352 353 353 349 348 352 353 354 355 2 4 4 2 5 11 9 5 6 4 1 6 25 6 347 347 347 352 353 348 345 356
11 8 2 1 357 356 354 352 350 351 354 353 356 356 356 355 360 6 11 7 2 8 15 18 18 11 358 348 349 8 14 6 3 359 353 348 359 6
8 5 1 357 354 352 351 350 348 350 355 354 359 355 354 353 359 3 8 9 356 8 12 21 18 323 319 349 12 29 52 52 27 18 2 356 360 8
4 359 356 354 354 351 350 353 352 354 356 356 357 354 352 353 356 2 3 6 12 10 9 11 9 1 7 15 19 23 38 76 99 72 49 32 17 9
1 351 347 354 358 353 355 355 355 356 359 356 353 351 351 354 355 3 4 7 12 10 9 12 12 15 17 20 24 27 27 36 55 74 72 67 63 52